AirNav   Get $300 off a Bose A20
 
 1480 users online  

26A Ashland/Lineville Airport
Ashland/Lineville, Alabama, USA

GOING TO ASHLAND/LINEVILLE?


FAA INFORMATION EFFECTIVE 25 APRIL 2019

Location

FAA Identifier: 26A
Lat/Long: 33-17-03.1100N / 085-48-32.2750W
33-17.051833N / 085-48.537917W
33.2841972 / -85.8089653
(estimated)
Elevation: 1065 ft. / 324.6 m (surveyed)
Variation: 01W (1985)
From city: 2 miles NE of central business district of the associated city
Time zone: UTC -5 (UTC -6 during Standard Time)
Zip code: 36251

Airport Operations

Airport use: Open to the public
Activation date: 04/1968
Control tower: no
ARTCC: ATLANTA CENTER
FSS: ANNISTON FLIGHT SERVICE STATION
NOTAMs facility: ANB (NOTAM-D service available)
Attendance: UNATNDD
Wind indicator: lighted
Segmented circle: no
Lights: ACTVT MIRL RY 09/27 AND REIL RY 09 & 27 - CTAF.
Beacon: white-green (lighted land airport)
Operates sunset to sunrise.

Airport Communications

CTAF: 122.9
WX ASOS at ANB (18 nm N): 119.675 (256-835-3931)

Nearby radio navigation aids

VOR radial/distance  VOR name  Freq  Var
TDGr144/21.0TALLADEGA VOR/DME108.8002E
LGCr294/33.4LAGRANGE VORTAC115.6001E

 
NDB name  Hdg/Dist  Freq  Var  ID
CARROLLTON248/37.927804WGPQ --. .--. --.-

Airport Services

Parking: tiedowns
Bottled oxygen: NONE
Bulk oxygen: NONE

Runway Information

Runway 9/27

Dimensions: 4023 x 80 ft. / 1226 x 24 m
Surface: asphalt, in good condition
Weight bearing capacity: 
Single wheel: 20.0
Runway edge lights: medium intensity
RUNWAY 9  RUNWAY 27
Latitude: 33-17.051833N33-17.051833N
Longitude: 085-48.932833W085-48.143000W
Elevation: 1065.9 ft.1057.3 ft.
Traffic pattern: leftleft
Displaced threshold: 200 ft.no
Declared distances: TORA:4023 TODA:4023TORA:3823 TODA:4023
Markings: nonprecision, in good conditionnonprecision, in good condition
Runway end identifier lights: yesyes
Obstructions: 35 ft. pole, 969 ft. from runway, 18 ft. left of centerline, 21:1 slope to clear
APCH RATIO 33:1 TO DSPLCD THLD.
46 ft. tree, 1317 ft. from runway, 2 ft. right of centerline, 24:1 slope to clear

Airport Ownership and Management from official FAA records

Ownership: Publicly-owned
Owner: CLAY COUNTY COMMISSION
P. O. BOX 187
ASHLAND, AL 36251
Phone (256) 354-7888
Manager: CLAY COUNTY COMMISSION
375 AIRPORT ROAD
ASHLAND, AL 36251
Phone (256) 354-7888
CHAIRMAN, CLAY COUNTY COMMISSION, ROY JOHNSON.

Airport Operational Statistics

Aircraft based on the field: 7
Single engine airplanes: 6
Multi engine airplanes: 1
    
Aircraft operations: avg 55/week *
87% transient general aviation
10% local general aviation
3% military
* for 12-month period ending 28 February 2018

Instrument Procedures

There are no published instrument procedures at 26A.

Some nearby airports with instrument procedures:

KANB - Anniston Regional Airport (18 nm N)
KASN - Talladega Municipal Airport (21 nm NW)
KALX - Thomas C Russell Field Airport (23 nm S)
KSCD - Merkel Field Sylacauga Municipal Airport (26 nm W)
KPLR - St Clair County Airport (28 nm NW)
 
Loc | Ops | Rwys | IFR | FBO | Links
Com | Nav | Svcs | Stats | Notes
Area around 26A (Ashland/Lineville Airport)
 
Road maps at: MapQuest Bing Google
 
Aerial photo
No photo
 
Sectional chart

 
Airport distance calculator
Flying to Ashland/Lineville Airport? Find the distance to fly.

From to 26A

Sunrise and sunset
Times for 26-Apr-2019
 Local
(UTC-5)
 Zulu
(UTC)
Morning civil twilight05:3510:35
Sunrise06:0111:01
Sunset19:2100:21
Evening civil twilight19:4700:47

Current date and time
Zulu (UTC)  26-Apr-2019 16:45:38
Local (UTC-5)  26-Apr-2019 11:45:38
 
METAR
KANB 
18nm N 
261553Z AUTO 34014G25KT 10SM FEW041 20/10 A2993 RMK AO2 SLP133 T02000100
KASN 
21nm NW 
261635Z AUTO 34009G20KT 310V010 10SM CLR 21/08 A2996 RMK AO2 T02100076
KALX 
24nm S 
261635Z AUTO 34010G18KT 300V010 10SM SCT040 21/11 A2995 RMK AO2 T02060107
KSCD 
26nm W 
261635Z AUTO 35008G17KT 10SM SCT044 SCT050 BKN100 21/09 A2996 RMK AO2 T02050091
KPLR 
28nm NW 
261635Z AUTO 34011KT 10SM CLR 21/09 A2996 RMK A01
TAF
KANB 
18nm N 
261137Z 2612/2712 25007KT P6SM BKN019 OVC035 FM261400 27013G18KT P6SM OVC025 FM261600 30015G22KT P6SM SKC FM270000 31011KT P6SM SKC FM270500 00000KT P6SM SKC
KASN 
21nm NW 
261137Z 2612/2712 27009KT P6SM SCT024 OVC035 TEMPO 2612/2616 BKN024 OVC035 FM261600 30015G22KT P6SM SKC FM270000 31011KT P6SM SKC FM270500 00000KT P6SM SKC
NOTAMs
Click for the latest NOTAMs
NOTAMs are issued by the DoD/FAA and will open in a separate window not controlled by AirNav.

 

 
 

Would you like to see your business listed on this page?

 If your business provides an interesting product or service to pilots, flight crews, aircraft, or users of the Ashland/Lineville Airport, you should consider listing it here.  To start the listing process, click on the button below
 
Add a business
 

Other Pages about Ashland/Lineville Airport

Update a link
 
Copyright © AirNav, LLC. All rights reserved. Privacy Policy  Contact